STARLINK-5837 (56346 NORAD) Tracking and Keplerian Element Data

This shows tracking and keplerian element data for the satellite.

Feedback or suggestion? Click here.




ElementValue
Catalog56346
NameSTARLINK-5837
Epoch Orbit183
Epoch Day127.16667824
Epoch Year2023
RAAN126.655
Inclination97.6638
Eccentricity0.0001565
Argument of Perigee91.7409
Mean Anonmoly99.006
Mean Motion15.67874249
Decay Rate-0.00858495
L11 56346U 23058AF 23127.16667824 -.00858495 00000+0 -86588-2 0 9994
L22 56346 97.6638 126.6550 0001565 91.7409 99.0060 15.67874249 1836



Live tracking and technical data element details for STARLINK-5837 (NORAD 56346). STARLINK-5837 can be tracked NOW for your location showing map with azimuth and elevation plus other details from your city location.







IsCatalogInMostPopularTable: catalog: 56346, numindb: 3
Update: records affected: 1



GetName: 56346 STARLINK-5837

Hit Count: updated at: Mon, 05 Jun 2023 01:13:18 GMT